Weather History for KROA - October, 2010

Change the Weather History Date:

Tuesday, October 26, 2010

  Actual Average Record
Temperature  
Mean Temperature 66 °F 55 °F  
Max Temperature 76 °F 66 °F 86 °F (1939)
Min Temperature 55 °F 43 °F 26 °F (1933)
Degree Days  
Heating Degree Days 0 10  
Month to date heating degree days 117 191  
Since 1 July heating degree days 137 240  
Cooling Degree Days 1 0  
Month to date cooling degree days 19 18  
Year to date cooling degree days 1671 1204  
Growing Degree Days 15 (Base 50)    
Moisture  
Dew Point 62 °F    
Average Humidity 85    
Maximum Humidity 100    
Minimum Humidity 69    
Precipitation  
Precipitation 0.01 in 0.10 in 1.61 in (1977)
Month to date precipitation 1.17 2.40  
Year to date precipitation 37.44 34.42  
Snow  
Snow 0.00 in - - ()
Month to date snowfall 0.0  
Since 1 July snowfall 0.0  
Since 1 September snowfall 0.0  
Snow Depth 0.00 in    
Sea Level Pressure  
Sea Level Pressure 29.86 in    
Wind  
Wind Speed 7 mph (SSE)    
Max Wind Speed 16 mph    
Max Gust Speed 22 mph    
Visibility 9 miles    
Events Fog , Rain    
T = Trace of Precipitation, MM = Missing Value Source: NWS Daily Summary

Daily Weather History Graph

Daily Weather History Graph

Search for Another Location

Airport or City:

Trip Planner

Search our weather history database for the weather conditions in past years. The results will help you decide how hot, cold, wet, or windy it might be!

Date:

Astronomy

Oct. 26, 2010 Rise Set
Actual Time 7:38 AM EDT 6:28 PM EDT
Civil Twilight 7:11 AM EDT 6:55 PM EDT
Nautical Twilight 6:41 AM EDT 7:25 PM EDT
Astronomical Twilight 6:10 AM EDT 7:56 PM EDT
Moon 8:54 PM EDT (10/26) 11:12 AM EDT (10/26)
Length of Visible Light 11h 43m
Length of Day
10h 50m
Waning Gibbous, 87% of the Moon is Illuminated
Oct 26
Waning Gibbous
Oct 30
Last Quarter
Nov 6
New
Nov 13
First Quarter
Nov 21
Full

Hourly Weather History & Observations

Time (EDT) Temp. Dew Point Humidity Pressure Visibility Wind Dir Wind Speed Gust Speed Precip Events Conditions
12:54 AM 59.0 °F 57.9 °F 96% 29.91 in 10.0 mi East 5.8 mph - N/A   Clear
1:54 AM 59.0 °F 57.9 °F 96% 29.91 in 10.0 mi East 5.8 mph - N/A   Clear
2:54 AM 57.9 °F 57.0 °F 97% 29.91 in 8.0 mi Calm Calm - N/A   Clear
3:41 AM 55.4 °F 55.4 °F 100% 29.94 in 8.0 mi Calm Calm - N/A   Mostly Cloudy
3:54 AM 57.0 °F 55.9 °F 96% 29.91 in 5.0 mi Calm Calm - N/A   Mostly Cloudy
4:18 AM 55.4 °F 55.4 °F 100% 29.92 in 8.0 mi Calm Calm - N/A   Overcast
4:54 AM 59.0 °F 57.0 °F 93% 29.89 in 10.0 mi Calm Calm - N/A   Partly Cloudy
5:47 AM 55.4 °F 55.4 °F 100% 29.92 in 10.0 mi Calm Calm - N/A   Mostly Cloudy
5:54 AM 55.9 °F 55.0 °F 97% 29.89 in 10.0 mi Calm Calm - N/A   Mostly Cloudy
6:31 AM 55.4 °F 55.4 °F 100% 29.91 in 10.0 mi Calm Calm - N/A   Overcast
6:47 AM 55.4 °F 55.4 °F 100% 29.91 in 10.0 mi Calm Calm - N/A   Overcast
6:54 AM 57.0 °F 55.0 °F 93% 29.89 in 10.0 mi Calm Calm - N/A   Overcast
7:06 AM 57.2 °F 55.4 °F 94% 29.90 in 10.0 mi Calm Calm - N/A   Overcast
7:54 AM 57.9 °F 57.0 °F 97% 29.88 in 4.0 mi SSE 3.5 mph - N/A   Overcast
8:06 AM 60.8 °F 60.8 °F 100% 29.90 in 0.5 mi SE 9.2 mph - N/A Fog Fog
8:40 AM 60.8 °F 60.8 °F 100% 29.91 in 1.0 mi SE 8.1 mph - N/A   Overcast
8:54 AM 62.1 °F 61.0 °F 96% 29.89 in 4.0 mi SE 9.2 mph - N/A   Overcast
9:54 AM 64.0 °F 62.1 °F 93% 29.89 in 8.0 mi SE 11.5 mph - N/A   Overcast
10:01 AM 64.4 °F 62.6 °F 94% 29.91 in 10.0 mi SE 11.5 mph - N/A   Overcast
10:35 AM 64.4 °F 62.6 °F 94% 29.90 in 10.0 mi SE 9.2 mph - N/A   Overcast
10:54 AM 64.9 °F 63.0 °F 93% 29.88 in 10.0 mi SE 10.4 mph - N/A   Overcast
11:46 AM 69.8 °F 62.6 °F 78% 29.89 in 10.0 mi South 5.8 mph - N/A   Overcast
11:48 AM 69.8 °F 62.6 °F 78% 29.89 in 10.0 mi South 5.8 mph - N/A   Overcast
11:54 AM 69.1 °F 63.0 °F 81% 29.86 in 10.0 mi South 8.1 mph - N/A   Overcast
12:54 PM 71.1 °F 64.0 °F 78% 29.84 in 10.0 mi SSE 8.1 mph - N/A   Overcast
1:01 PM 71.6 °F 64.4 °F 78% 29.86 in 10.0 mi SE 10.4 mph - N/A   Overcast
1:54 PM 71.1 °F 64.0 °F 78% 29.82 in 10.0 mi SSE 12.7 mph - N/A   Overcast
2:54 PM 75.9 °F 64.0 °F 67% 29.79 in 10.0 mi South 10.4 mph 17.3 mph N/A   Overcast
3:54 PM 75.0 °F 64.0 °F 69% 29.79 in 10.0 mi South 13.8 mph - N/A   Mostly Cloudy
4:54 PM 73.9 °F 64.9 °F 73% 29.78 in 10.0 mi South 8.1 mph 17.3 mph N/A   Mostly Cloudy
5:54 PM 75.0 °F 64.0 °F 69% 29.77 in 10.0 mi South 8.1 mph - N/A   Mostly Cloudy
6:54 PM 73.9 °F 64.9 °F 73% 29.77 in 10.0 mi South 8.1 mph - N/A   Scattered Clouds
7:54 PM 72.0 °F 66.0 °F 81% 29.79 in 10.0 mi South 6.9 mph - 0.00 in   Mostly Cloudy
8:26 PM 73.4 °F 66.2 °F 78% 29.82 in 10.0 mi South 6.9 mph - N/A   Overcast
8:45 PM 73.4 °F 66.2 °F 78% 29.82 in 10.0 mi South 5.8 mph - N/A   Overcast
8:54 PM 73.0 °F 66.0 °F 79% 29.80 in 10.0 mi SSE 4.6 mph - N/A   Overcast
9:02 PM 71.6 °F 66.2 °F 83% 29.82 in 10.0 mi SSE 6.9 mph - N/A   Overcast
9:54 PM 71.1 °F 68.0 °F 90% 29.81 in 10.0 mi SSE 6.9 mph - 0.01 in Rain Light Rain
10:31 PM 69.8 °F 68.0 °F 94% 29.84 in 10.0 mi SSE 6.9 mph - 0.00 in   Overcast
10:54 PM 71.1 °F 68.0 °F 90% 29.82 in 10.0 mi SSE 8.1 mph - 0.00 in   Overcast
11:15 PM 71.6 °F 66.2 °F 83% 29.84 in 10.0 mi SSE 8.1 mph - N/A   Mostly Cloudy
11:54 PM 70.0 °F 66.9 °F 90% 29.82 in 10.0 mi SE 5.8 mph - N/A   Overcast